Activity Log for Feb, 02 2019

Back to Activity Log Search


Incident Time Nature Address
19F011902 00:07:42 30 TRAFFIC STOP OXFORD ST & S ANTHONY BLVD
19F011905 00:08:51 66 MENTALLY ILL 58XX KELSO LN
19F011903 00:10:54 30 TRAFFIC STOP E STATE BLVD & PLEASANT AVE
19F011904 00:12:36 40A AUDIBLE 34XX E WASHINGTON BLVD
19F011906 00:15:23 30 TRAFFIC STOP W LUDWIG RD & LIMA RD
19F011907 00:17:15 30 TRAFFIC STOP AVONDALE DR & BAXTER ST
19F011909 00:25:39 25 PD ACCIDENT 33XX ROBINWOOD DR
19F011908 00:26:30 30 TRAFFIC STOP 42XX S LAFAYETTE ST
19F011911 00:31:15 96JO 82XX BRIDGEWAY CIR UNIT 2B
19F011910 00:31:35 40A AUDIBLE 11XX N COLISEUM BLVD
19F011912 00:39:55 96JO E PETTIT AVE & SOUTHPARK DR
19F011913 00:45:19 30 TRAFFIC STOP LIMA RD & E FERNHILL AVE
19F011914 00:48:32 30 TRAFFIC STOP S ANTHONY BLVD & GRIER ST
19F011915 00:50:45 43 DISTURBANCE 3XX MCKINNIE AVE
19F011917 00:52:09 EMS 49XX HAFFNER DR
19F011916 00:54:13 63 CONTACT 29XX SIMCOE DR
19F011919 00:59:00 63 CONTACT 29XX TAYLOR ST
19F011918 01:00:43 30 TRAFFIC STOP N CLINTON ST & CUMBERLAND AVE
19F011920 01:02:24 48 SUSPICIOUS S HANNA ST & MCKINNIE AVE
19F011921 01:09:43 30 TRAFFIC STOP W COLISEUM BLVD & HATFIELD RD
19F011922 01:10:21 113 SHOTS FIRED 7XX FOREST AVE
19F011923 01:14:08 108 FOLLOWUP 60XX GUILD DR
19F011925 01:14:35 96 BATTERY 19XX TAMERA GARDEN AVE
19F011924 01:15:49 43 DISTURBANCE 29XX TAYLOR ST
19F011926 01:18:03 30 TRAFFIC STOP N CLINTON ST & E STATE BLVD
19F011927 01:27:30 33,34 OXFORD ST & S ANTHONY BLVD
19F011928 01:32:55 33J LOCKED OUT 15XX W WASHINGTON CENTER RD
19F011929 01:35:55 30 TRAFFIC STOP N CLINTON ST & E STATE BLVD
19F011930 01:38:54 46 DOMESTIC 11XX BROADWAY
19F011931 01:39:41 129 55XX CENTERHURST TERR
19F011932 01:40:12 129 75XX WYNNEWOOD LN
19F011933 01:42:12 30 TRAFFIC STOP CRESCENT AVE & E COLISEUM BLVD
19F011934 01:50:06 46 DOMESTIC 32XX DIPLOMAT DR
19F011935 01:51:46 ATL 38XX S MONROE ST
19F011936 01:54:15 44LM 34XX ACADEMIC PL
19F011938 01:56:09 33 DISABLED VEH I 469 AND I 69 N INTERCHANGE
19F011937 01:57:39 30 TRAFFIC STOP N CLINTON ST & E STATE BLVD
19F011939 02:01:12 46 DOMESTIC 21XX VANCE AVE
19F011940 02:01:13 101 OPEN DOOR 43XX GAYWOOD DR
19F011941 02:04:03 129 60XX BECKER DR
19F011942 02:04:19 129 60XX BECKER DR
19F011943 02:04:57 48 SUSPICIOUS 22XX DUNKELBERG RD LOT 933
19F011945 02:19:34 44LP 21XX FAIRFIELD AVE
19F011944 02:20:23 46 DOMESTIC 9XX EAST LAWN DR
19F011946 02:28:45 40A AUDIBLE 35XX INDEPENDENCE DR
19F011948 02:29:18 39 STOLEN VEHIC 2XX NORTHEAST DR
19F011947 02:30:57 30 TRAFFIC STOP CRESCENT AVE & E COLISEUM BLVD
19F011949 02:32:18 51IP 104XX MAYSVILLE RD
19F011950 02:48:40 101 OPEN DOOR 27XX W WASHINGTON CENTER RD LOT 34
19F011951 02:50:32 23,35 VAND VEH 34XX MONTANA DR
19F011953 02:51:20 103 UNWANTED 3XX E TILLMAN RD
19F011952 02:52:27 30 TRAFFIC STOP E STATE BLVD & N CLINTON ST
19F011954 02:53:09 30 TRAFFIC STOP ARDMORE AVE & GENEVA ST
19F011955 02:55:30 48 SUSPICIOUS 28XX KENTUCKY AVE
19F011956 02:57:31 63 CONTACT 19XX S CALHOUN ST APT 101
19F011957 03:06:31 30 TRAFFIC STOP 34XX W COLISEUM BLVD
19F011958 03:09:08 30 TRAFFIC STOP N CLINTON ST & COLDWATER RD
19F011959 03:25:07 30 TRAFFIC STOP ARDMORE AVE & W JEFFERSON BLVD
19F011960 03:26:11 30 TRAFFIC STOP N CLINTON ST & JACOBS AVE
19F011961 03:33:41 46,62 9XX E WASHINGTON BLVD
19F011962 03:50:57 48,36 10XX E BERRY ST
19F011963 03:53:18 46 DOMESTIC 27XX MAULDIN DR
19F011964 04:02:32 103 UNWANTED 41XX WARSAW ST
19F011965 04:13:53 63 CONTACT 29XX GOSHEN RD
19F011966 04:18:12 46,96 4XX W DEWALD ST
19F011967 04:27:24 46,62 56XX W COOK RD
19F011968 04:40:59 65T SUICIDE THR 9XX E WASHINGTON BLVD
19F011969 04:44:12 48,36 13XX W MAIN ST
19F011970 05:15:23 46 DOMESTIC 3XX W BUTLER ST UNIT 1
19F011972 05:19:31 15 ASSIST 67XX MALLARD COVE PL
19F011973 05:19:34 EMS 5XX W JEFFERSON BLVD
19F011971 05:20:20 39R STOLEN RECO 14XX GREENE ST
19F011974 05:22:45 40A AUDIBLE 6XX S CALHOUN ST
19F011975 05:45:40 96IP 10XX RIDGEWOOD DR
19F011980 05:47:13 97 FOUND ITEMS 9XX HIGH ST
19F011977 05:53:20 33 DISABLED VEH HARRY BAALS DR & E COLISEUM BLVD
19F011976 05:54:21 34 TRAFF HAZARD 45XX COLDWATER RD
19F011978 05:59:52 34 TRAFF HAZARD 8XX TAYLOR ST
19F011979 06:01:23 40A AUDIBLE 92XX LIMA RD
19F011982 06:11:28 51JO 13XX W WASHINGTON CENTER RD
19F011981 06:13:33 34 TRAFF HAZARD 103XX MAYSVILLE RD
19F011983 06:26:50 53 ARMED ROB 32XX E STATE BLVD
19F011984 06:32:12 63 CONTACT S ANTHONY BLVD & E TILLMAN RD
19F011985 06:37:26 63 CONTACT 35XX AUTUMN LN
19F011986 06:45:14 30 TRAFFIC STOP TAYLOR ST & BROADWAY
19F011987 06:51:17 46 DOMESTIC 10XX FAYETTE DR
19F011988 06:56:54 63 CONTACT 49XX LIMA RD
19F011989 06:57:32 20 PROBLEM UNK 47XX HEATHERWIND DR
19F011991 06:58:49 41,36 53XX COLDWATER RD
19F011990 06:59:14 25 PD ACCIDENT 34XX BROADWAY
19F011992 07:00:22 40A AUDIBLE 8XX HUGH ST
19F011993 07:01:55 50,ATTEMPTED 12XX W OAKDALE DR
19F011994 07:15:41 911 HANG UP 33XX W COLISEUM BLVD
19F011995 07:19:21 40 ALARM 2XX E DOUGLAS AVE
19F011996 07:21:28 XX E MAIN ST
19F011999 07:22:35 43 DISTURBANCE 41XX PAUL SHAFFER DR
19F011997 07:24:26 26 PI ACCIDENT TRIER RD & HOBSON RD
19F012000 07:28:41 1 MEET 11XX ILLSLEY DR
19F011998 07:30:57 25 PD ACCIDENT SPRING ST & FRANKLIN AVE
19F012001 07:49:56 129 46XX LAFAYETTE ESPLANADE
19F012002 08:05:47 46 DOMESTIC 3XX MCKINNIE AVE
19F012003 08:11:32 30 TRAFFIC STOP S CLINTON ST & E LEITH ST
19F012004 08:13:00 40A AUDIBLE 61XX CONSTITUTION DR
19F012005 08:13:08 40A AUDIBLE 32XX CARROLL RD
19F012007 08:14:05 50,ATTEMPTED 17XX HOWELL ST
19F012006 08:15:54 34 TRAFF HAZARD E COLISEUM BLVD & PARNELL AVE
19F012011 08:20:04 34 TRAFF HAZARD OWAISSA WAY & WAWONAISSA TRL
19F012008 08:21:51 129 27XX HOAGLAND AVE
19F012009 08:22:46 129 75XX LAKERIDGE DR
19F012010 08:23:10 33,34 SMITH RD & ENGLE RD
19F012013 08:28:11 27 RECKLESS DRI STELLHORN RD & MAPLECREST RD
19F012012 08:30:56 48 SUSPICIOUS 37XX LILLIE ST
19F012014 08:43:17 25 PD ACCIDENT ST JOE RD & ST JOE CENTER RD
19F012019 08:44:20 17 MOTOR CHECK 40XX WENONAH LN
19F012015 08:48:08 48 SUSPICIOUS TENNESSEE AVE & ST JOSEPH BLVD
19F012016 08:49:58 EMS 63XX W JEFFERSON BLVD
19F012017 08:59:39 63 CONTACT 75XX LAKERIDGE DR
19F012018 09:00:08 30 TRAFFIC STOP BLUFFTON RD & BROOKLYN AVE
19F012020 09:10:43 25 PD ACCIDENT S LAFAYETTE ST & E BERRY ST
19F012021 09:22:18 25 PD ACCIDENT E ESSEX LN & COLDWATER RD
19F012025 09:26:08 108 FOLLOWUP 60XX GUILD DR
19F012022 09:27:43 48 SUSPICIOUS 4XX E RUDISILL BLVD
19F012024 09:34:34 102 THREATS 28XX PRAIRIE GROVE DR
19F012023 09:36:31 40A AUDIBLE 80XX CARNEGIE BLVD
19F012029 09:45:05 47 REMOVE ITEMS 8XX W CREIGHTON AVE
19F012026 09:45:35 23 VANDALISM 3XX E TILLMAN RD
19F012027 09:56:44 46 DOMESTIC 34XX SMITH ST
19F012028 09:58:33 40A AUDIBLE 42XX FLAGSTAFF CV
19F012030 10:04:50 33,34 TAYLOR ST & PAUL ST
19F012035 10:06:16 22RC RECOVERY 33XX S HARRISON ST
19F012031 10:09:03 66 MENTALLY ILL 66XX MIDFIELD DR
19F012034 10:18:11 123 LEO/CEDARVI 150XX SR 1
19F012032 10:18:19 83 INFO REPORT 13XX CAPITOL AVE
19F012033 10:19:57 33,34 S HADLEY RD & OMAHA CT
19F012036 10:29:42 129 3XX E WILLIAMS ST
19F012037 10:30:35 46,96 E COX DR & SOUTHCREST RD
19F012038 10:34:04 40A AUDIBLE 7XX OSAGE ST
19F012040 10:49:57 25 PD ACCIDENT AVONDALE DR & E PETTIT AVE
19F012041 10:51:35 65T SUICIDE THR 39XX BUESCHING DR
19F012043 10:52:55 50 BURGLARY 64XX SUNLAND DR
19F012042 10:53:01 63 CONTACT 37XX MCCORMICK AVE
19F012044 10:55:36 96IP 21XX POINT WEST DR APT 3D
19F012045 11:00:34 43 DISTURBANCE 29XX WESTBROOK DR
19F012046 11:05:05 43 DISTURBANCE 7XX N COLISEUM BLVD
19F012047 11:06:28 911 HANG UP 20XX DREXEL AVE
19F012049 11:15:06 99 NARCOTICS 18XX W MAIN ST
19F012048 11:15:20 17 MOTOR CHECK 44XX ISLEVIEW CV
19F012051 11:28:14 46 DOMESTIC XX E MAIN ST
19F012050 11:28:47 48 SUSPICIOUS 13XX TAYLOR ST
19F012052 11:34:29 30 TRAFFIC STOP S CALHOUN ST & E PETTIT AVE
19F012053 11:52:25 40A AUDIBLE 53XX HOLTON AVE
19F012054 11:54:06 51 THEFT 47XX FALL BROOK LN
19F012055 11:54:30 46,96 3XX W PONTIAC ST
19F012056 12:02:00 30 TRAFFIC STOP E PONTIAC ST & EUCLID AVE
19F012057 12:03:23 51 THEFT 56XX W YMCA PARK DR
19F012058 12:07:48 25HS HIT SKIP 8XX COLUMBIA AVE
19F012059 12:11:22 102,TX THREATS 37XX E WASHINGTON BLVD
19F012060 12:28:29 25 PD ACCIDENT LIMA RD & I 69 311 SB ON RAMP
19F012061 12:33:30 50IP BURG I/P 13XX TAYLOR ST
19F012062 12:35:45 25HS HIT SKIP 26XX S LAFAYETTE ST
19F012063 12:41:46 34 TRAFF HAZARD 66XX WINNEBAGO DR
19F012064 12:45:33 43 DISTURBANCE 37XX MCCORMICK AVE
19F012067 12:48:50 37 PARKING VIOL 37XX HIAWATHA BLVD
19F012066 12:50:44 911 HANG UP 47XX ST JOE RD
19F012065 12:51:48 43 DISTURBANCE 53XX COLDWATER RD
19F012068 13:05:25 40A AUDIBLE 39XX ICE WAY
19F012070 13:12:56 43 DISTURBANCE 21XX EDENTON DR
19F012069 13:16:20 30 TRAFFIC STOP ST JOE CENTER RD & RIVER RUN TRL
19F012071 13:19:24 30 TRAFFIC STOP DUNKELBERG RD & KINNERK RD
19F012072 13:20:09 47 REMOVE ITEMS 22XX VERSAILLES VILLAGE PL
19F012073 13:22:32 43 DISTURBANCE 11XX W WASHINGTON BLVD
19F012074 13:25:14 40A AUDIBLE 79XX GATHINGS DR
19F012075 13:33:37 1 MEET EDSALL AVE & MCCORMICK AVE
19F012076 13:39:21 30 TRAFFIC STOP S LAFAYETTE ST & E PAULDING RD
19F012077 13:44:10 30 TRAFFIC STOP BROADWAY & W CREIGHTON AVE
19F012078 13:44:46 65T SUICIDE THR 25XX SOUTHWAYNE AVE
19F012095 13:49:08 111 ANIMAL INVE 35XX WINTER ST
19F012081 14:01:00 37 PARKING VIOL 25XX THOMPSON AVE
19F012079 14:03:51 16,97 49XX MOUNT VERNON PARK DR
19F012080 14:05:17 34 TRAFF HAZARD W WILLIAMS ST & S CALHOUN ST
19F012082 14:05:29 40A AUDIBLE 54XX KEYSTONE DR
19F012083 14:07:53 129 16XX EMERSON AVE
19F012084 14:15:20 63 CONTACT 1XX W BERRY ST
19F012085 14:18:57 99 NARCOTICS 18XX FOX POINT TRL
19F012086 14:24:16 66 MENTALLY ILL 49XX HOAGLAND AVE
19F012088 14:30:02 45 NEIGHBORHOOD 29XX NEW HAVEN AVE
19F012087 14:30:31 99 NARCOTICS XX E MAIN ST
19F012089 14:31:24 34 TRAFF HAZARD 316XX I 69 NB
19F012090 14:32:22 25 PD ACCIDENT LOWER HUNTINGTON RD & WINCHESTER R
19F012091 14:35:12 30 TRAFFIC STOP MAPLECREST RD & ROTHMAN RD
19F012092 14:36:18 30 TRAFFIC STOP E COLISEUM BLVD & W CAMPUS DR
19F012096 14:36:23 17 MOTOR CHECK 7XX POPLAR ST
19F012093 14:36:24 42 INTOX PERSON 3XX W JEFFERSON BLVD
19F012094 14:37:21 65T SUICIDE THR 48XX WAYNE PARK DR
19F012107 14:41:06 1 MEET 18XX FOX POINT TRL
19F012097 14:46:12 16,97 1XX W MAIN ST
19F012098 14:50:56 30 TRAFFIC STOP 6XX W WASHINGTON CENTER RD
19F012099 14:51:03 40A AUDIBLE 43XX MARVIN DR
19F012103 14:52:37 47 REMOVE ITEMS 18XX ALABAMA AVE
19F012101 14:55:58 15 ASSIST 68XX BRIGHT OAKS TRL
19F012100 14:57:04 25HS HIT SKIP E STATE BLVD & FOREST VALLEY DR
19F012102 14:58:11 46,96 18XX CHARTWELL DR
19F012104 15:02:16 30 TRAFFIC STOP OXFORD ST & HOLTON AVE
19F012105 15:03:19 30 TRAFFIC STOP E STATE BLVD & CRESCENT AVE
19F012106 15:05:05 25HS HIT SKIP 49XX LIMA RD
19F012108 15:07:29 40A AUDIBLE 105XX RICHMOND DR
19F012109 15:09:37 15 ASSIST 16XX E COOK RD
19F012111 15:15:29 27 RECKLESS DRI E STATE BLVD & SPY RUN AVE
19F012110 15:17:43 46,96 12XX BILLY DR
19F012112 15:22:12 30 TRAFFIC STOP MCKINNIE AVE & OLIVER ST
19F012113 15:26:06 25 PD ACCIDENT 3XX E COLISEUM BLVD
19F012114 15:28:44 30 TRAFFIC STOP FREEMAN ST & BOULDER AVE
19F012116 15:33:55 40H HOLDUP ALRM 18XX N COLISEUM BLVD
19F012115 15:34:21 30 TRAFFIC STOP 19XX W STATE BLVD
19F012118 15:34:31 15 ASSIST 53XX JOHNNIE DR
19F012117 15:39:04 48,35 8XX W DEWALD ST
19F012119 15:40:27 EMS 51XX VALUE DR
19F012120 15:42:24 15,85 ASST AT O 35XX SMITH ST
19F012121 15:42:42 25 PD ACCIDENT 2XX W FOURTH ST
19F012122 15:43:35 911 HANG UP 68XX S CALHOUN ST
19F012123 15:46:10 25 PD ACCIDENT 7XX E DUPONT RD
19F012127 15:47:08 96 BATTERY 39XX E STATE BLVD
19F012124 15:48:00 30 TRAFFIC STOP 21XX W STATE BLVD
19F012129 15:48:05 37 PARKING VIOL 6XX VILLA PARK CT
19F012125 15:48:27 34 TRAFF HAZARD E MAIN ST & S CLINTON ST
19F012126 15:48:36 EMS 21XX RED OAK RUN
19F012128 15:55:49 30 TRAFFIC STOP STELLHORN RD & HOBSON RD
19F012131 16:04:55 37 PARKING VIOL 32XX FOXCROFT DR
19F012130 16:05:14 30 TRAFFIC STOP S BARR ST & E RUDISILL BLVD
19F012132 16:10:20 30 TRAFFIC STOP S ANTHONY BLVD & E PETTIT AVE
19F012133 16:11:16 30 TRAFFIC STOP ST JOE RD & CANTERBURY BLVD
19F012134 16:12:29 30 TRAFFIC STOP NUTTMAN AVE & WENONAH LN
19F012135 16:18:03 30 TRAFFIC STOP S CLINTON ST & E RUDISILL BLVD
19F012136 16:19:09 30 TRAFFIC STOP FOREST AVE & HILLSIDE AVE
19F012137 16:19:47 33,34 315XX I 69 SB
19F012138 16:20:00 25 PD ACCIDENT COLDWATER RD & WILLOWIND TRL
19F012139 16:26:19 40A AUDIBLE 32XX SCHELE AVE
19F012140 16:30:40 30 TRAFFIC STOP W JEFFERSON BLVD & RECKEWEG RD
19F012141 16:31:37 30 TRAFFIC STOP E PETTIT AVE & OLIVER ST
19F012157 16:34:28 39 STOLEN VEHIC 50XX DECATUR RD
19F012142 16:35:34 30 TRAFFIC STOP S LAFAYETTE ST & E RUDISILL BLVD
19F012143 16:37:42 48,35 33XX SCHELE AVE
19F012145 16:38:30 64 NOT SEEN 29XX SMITH ST
19F012144 16:38:42 30 TRAFFIC STOP NUTTMAN AVE & MCKINLEY AVE
19F012147 16:41:13 25 PD ACCIDENT GLENCAIRN DR & FAIRLAWN PASS
19F012148 16:46:30 111D DOG 25XX NUTTMAN AVE
19F012149 16:49:20 911 HANG UP 3XX PASADENA DR
19F012154 16:50:14 63 CONTACT LIMA RD & W COOK RD
19F012150 16:51:35 103 UNWANTED 8XX WALNUT ST
19F012152 16:53:42 101 OPEN DOOR 45XX S CALHOUN ST
19F012151 16:55:43 30 TRAFFIC STOP OLIVER ST & E RUDISILL BLVD
19F012153 16:59:34 48 SUSPICIOUS 16XX W WASHINGTON CENTER RD
19F012155 17:05:29 66 MENTALLY ILL 16XX E WASHINGTON BLVD
19F012158 17:09:49 46 DOMESTIC 60XX S ANTHONY BLVD
19F012156 17:09:57 33J LOCKED OUT 13XX E WASHINGTON CENTER RD
19F012159 17:15:01 26 PI ACCIDENT E WASHINGTON BLVD & S HANNA ST
19F012160 17:17:11 59 CUTTING/STAB 16XX RICHARDSON ST
19F012166 17:19:38 14 WARRANT 10XX W COLISEUM BLVD
19F012161 17:27:58 23IP VANDALISM 22XX DRAKE DR
19F012163 17:33:47 63 CONTACT 6XX NORTHWEST PASSAGE TRL
19F012162 17:34:10 30 TRAFFIC STOP 17XX APPLE GLEN BLVD
19F012164 17:34:47 48 SUSPICIOUS 42XX COLDWATER RD
19F012165 17:36:14 911 HANG UP 12XX FERGUSON AVE
19F012167 17:37:24 22I JUV INVEST 22XX PARNELL AVE
19F012169 17:39:50 63 CONTACT 60XX ALLENWOOD DR
19F012168 17:43:52 101 OPEN DOOR 16XX THIRD ST
19F012170 17:46:14 1 MEET 56XX WOODSHIRE DR APT 4
19F012171 17:52:31 44LM 20XX ARDMORE AVE
19F012177 17:54:01 22RN RUNAWAY 43XX PLAZA DR
19F012172 17:58:35 48,35 26XX GLENWOOD AVE
19F012174 18:09:20 27 RECKLESS DRI 35XX NEW HAVEN AVE
19F012173 18:09:51 40H HOLDUP ALRM 17XX APPLE GLEN BLVD
19F012175 18:12:03 25HS HIT SKIP 102XX MAYSVILLE RD
19F012176 18:12:13 43 DISTURBANCE 3XX W BERRY ST
19F012178 18:12:36 63 CONTACT W CREIGHTON AVE & BROADWAY
19F012179 18:14:54 96 BATTERY 76XX W MELODY CIR
19F012180 18:19:49 40 ALARM 3XX W COOK RD
19F012182 18:23:24 48 SUSPICIOUS 61XX STELLHORN RD
19F012193 18:23:28 51 THEFT 30XX GOSHEN RD
19F012181 18:24:12 30 TRAFFIC STOP E COLISEUM BLVD & HOBSON RD
19F012184 18:24:16 EMS 73XX TANGERINE LN
19F012183 18:26:35 51JO 42XX COLDWATER RD
19F012185 18:33:12 66V MENTAL VIOL 26XX E STATE BLVD
19F012188 18:34:18 51 THEFT 3XX W BERRY ST
19F012186 18:40:58 30 TRAFFIC STOP NUTTMAN AVE & ARDMORE AVE
19F012187 18:41:41 40A AUDIBLE 12XX PROGRESS RD
19F012191 18:48:33 33,34 24XX OLIVER ST
19F012190 18:50:21 22I JUV INVEST 118XX SR 3
19F012189 18:52:01 108 FOLLOWUP 60XX GUILD DR
19F012192 18:59:55 103 UNWANTED 14XX BAXTER ST
19F012195 19:05:05 43,62 32XX E STATE BLVD
19F012194 19:05:07 101 OPEN DOOR 6XX ROXBURY CT
19F012196 19:05:18 EMS 79XX SERENITY DR
19F012198 19:07:29 25 PD ACCIDENT COLDWATER RD & E WALLEN RD
19F012203 19:07:43 46 DOMESTIC 82XX BRIDGEWAY CIR UNIT 3B
19F012197 19:08:21 30 TRAFFIC STOP PROGRESS RD & LIMA RD
19F012201 19:09:53 33,34 N CLINTON ST & ST JOE CENTER RD
19F012199 19:09:56 46 DOMESTIC 21XX SOUTHFIELD DR
19F012202 19:11:05 40 ALARM 1XX W BERRY ST
19F012200 19:11:12 51 THEFT 43XX COLDWATER RD
19F012204 19:18:32 30 TRAFFIC STOP VANCE AVE & BEACON ST
19F012205 19:21:48 55 FIGHT 10XX PAPE AVE
19F012206 19:22:12 33,34 N COLISEUM BLVD & E STATE BLVD
19F012207 19:28:09 48 SUSPICIOUS 26XX OTSEGO DR
19F012208 19:36:22 25HS HIT SKIP S HANNA ST & CONGRESS AVE
19F012209 19:37:34 50IP BURG I/P 19XX DREXEL AVE
19F012293 19:39:00 37 PARKING VIOL 21XX ST MARYS AVE
19F012210 19:44:01 46 DOMESTIC 75XX HOPE DR
19F012212 19:49:01 66 MENTALLY ILL 49XX FAIRINGTON DR
19F012216 19:54:39 35 PARKED VEHIC 15XX SUMMIT ST
19F012213 19:58:40 37 PARKING VIOL 11XX S HARRISON ST
19F012214 20:01:19 30 TRAFFIC STOP S ANTHONY BLVD & MCKINNIE AVE
19F012215 20:02:00 30 TRAFFIC STOP MAPLECREST RD & CENTERTON DR
19F012217 20:06:41 66V MENTAL VIOL 50XX MARTINIQUE RD
19F012218 20:07:28 43 DISTURBANCE 17XX APPLE GLEN BLVD
19F012219 20:11:14 911 HANG UP 10XX BROADWAY
19F012221 20:15:25 65T SUICIDE THR 1XX S CLINTON ST
19F012220 20:15:50 30 TRAFFIC STOP S HANNA ST & E SHERWOOD TER
19F012222 20:18:14 63 CONTACT E COLISEUM BLVD & N ANTHONY BLVD
19F012223 20:22:44 66 MENTALLY ILL 2XX E FOURTH ST
19F012226 20:23:02 102 THREATS XX E MAIN ST
19F012224 20:24:04 48 SUSPICIOUS 34XX S BARR ST
19F012225 20:25:02 22RN RUNAWAY 96XX WOLF RIVER PL
19F012237 20:29:28 44LM 65XX ST JOE RD APT 223
19F012227 20:30:18 44LP 8XX WEBSTER ST
19F012229 20:36:34 22I JUV INVEST 16XX SPY RUN AVE
19F012228 20:37:17 113 SHOTS FIRED 39XX HESSEN CASSEL RD
19F012230 20:38:43 58 SHOOTING SENATE AVE & GAYWOOD DR
19F012231 20:40:21 30 TRAFFIC STOP E COLISEUM BLVD & PAUL SHAFFER DR
19F012232 20:42:48 99 NARCOTICS 15XX REED RD
19F012233 20:49:52 23,113 44XX GAYWOOD DR
19F012234 20:51:24 40A AUDIBLE 57XX WINCHESTER RD
19F012235 20:52:54 28 DUI WENONAH LN & OJIBWAY TRL
19F012236 20:53:58 EMS 78XX INVERNESS LAKES TRL
19F012239 21:02:08 22I JUV INVEST 33XX KENASTON DR
19F012240 21:02:45 63 CONTACT 75XX MILL RUN DR
19F012238 21:03:24 25HS HIT SKIP S LAFAYETTE ST & MCKINNIE AVE
19F012241 21:12:10 65T SUICIDE THR 16XX N HARRISON ST
19F012242 21:12:49 41 MAN DOWN 11XX E PONTIAC ST
19F012243 21:15:30 46,96 29XX WESTBROOK DR
19F012244 21:23:53 46,96 83XX BRIDGEWAY DR UNIT 2D
19F012245 21:26:29 43 DISTURBANCE 35XX GAYWOOD DR
19F012246 21:30:37 25HS HIT SKIP 14XX E TILLMAN RD
19F012248 21:37:04 EMS 81XX OKLAHOMA TRL
19F012254 21:38:55 63 CONTACT 26XX E STATE BLVD
19F012247 21:38:58 43 DISTURBANCE 36XX CHEVIOT DR
19F012249 21:43:11 1 MEET 27XX LAKE AVE
19F012250 21:48:57 30 TRAFFIC STOP E STATE BLVD & CAREW ST
19F012251 21:52:50 40A AUDIBLE 54XX SOUTHBROOK RD
19F012252 21:54:34 55 FIGHT MCKINNIE AVE & S ANTHONY BLVD
19F012253 21:59:22 15 ASSIST 41XX TRIER RD
19F012255 22:04:41 43,62 9XX E WASHINGTON BLVD
19F012258 22:05:25 46 DOMESTIC 62XX CROFTON DR
19F012256 22:07:04 30 TRAFFIC STOP W JEFFERSON BLVD & COVINGTON RD
19F012257 22:07:35 46 DOMESTIC 29XX S HARRISON ST
19F012259 22:08:24 911 HANG UP 71XX HICKORY CREEK DR
19F012260 22:15:21 33,34 W COLISEUM BLVD & LIMA RD
19F012261 22:16:39 40A AUDIBLE 78XX COLDWATER RD
19F012262 22:17:05 43 DISTURBANCE 93XX LIMA RD
19F012266 22:19:51 27 RECKLESS DRI 101XX LIMA RD
19F012263 22:21:33 30 TRAFFIC STOP LEY RD & INDUSTRIAL RD
19F012264 22:21:54 EMS 30XX W COLISEUM BLVD
19F012265 22:22:59 30 TRAFFIC STOP CRESCENT AVE & LAKE AVE
19F012267 22:29:02 15,85 ASST AT O 8XX E COLISEUM BLVD
19F012268 22:33:52 101 OPEN DOOR 19XX SPY RUN AVE
19F012269 22:39:25 22RN RUNAWAY 4XX VIOLET CT
19F012272 22:40:43 24 MISSING PERS 6XX E DEWALD ST
19F012270 22:42:43 25 PD ACCIDENT 40XX PARNELL AVE
19F012271 22:44:19 48 SUSPICIOUS 2XX E PETTIT AVE
19F012275 22:56:43 14 WARRANT 17XX HOWELL ST
19F012273 23:01:46 43 DISTURBANCE 5XX E WOODLAND AVE
19F012274 23:03:49 48 SUSPICIOUS 38XX TAYLOR ST
19F012276 23:04:59 48 SUSPICIOUS 9XX E WASHINGTON BLVD UNIT A
19F012277 23:10:03 48,35 4XX E WASHINGTON BLVD
19F012278 23:13:50 43 DISTURBANCE 30XX W COLISEUM BLVD
19F012282 23:17:43 44LM 57XX WESTHILLS RD
19F012280 23:18:28 48 SUSPICIOUS 23XX FLORIDA DR
19F012279 23:19:20 46 DOMESTIC 38XX EASTWAY DR
19F012281 23:20:43 30 TRAFFIC STOP BROADWAY & STOPHLET ST
19F012285 23:23:17 103 UNWANTED 10XX LILLIAN AVE
19F012283 23:25:28 30 TRAFFIC STOP E COLISEUM BLVD & COLDWATER RD
19F012284 23:26:44 48,36 64XX MONARCH DR
19F012286 23:30:07 33,34 E COLISEUM BLVD & COLDWATER RD
19F012287 23:35:33 40A AUDIBLE 99XX HUNTERS RETREAT
19F012289 23:37:56 96 BATTERY 11XX GOSHEN AVE
19F012288 23:39:38 43 DISTURBANCE 62XX CROFTON DR
19F012290 23:41:04 40A AUDIBLE 18XX W FOURTH ST
19F012291 23:42:01 43 DISTURBANCE 47XX WELLINGTON DR
19F012292 23:42:29 46 DOMESTIC 46XX STANDISH DR
19F012294 23:50:18 48 SUSPICIOUS 70XX BRADBURY AVE
19F012297 23:52:00 46,96 49XX LIMA RD
19F012295 23:52:52 33,34 57XX WINCHESTER RD
19F012296 23:53:27 30 TRAFFIC STOP 19XX ARDMORE AVE
19F012298 23:54:47 30 TRAFFIC STOP S CLINTON ST & E TABER ST
19F012299 23:57:58 30 TRAFFIC STOP MAUMEE AVE & CEDAR ST